Location: Campo Alegre
(10.4289°N, 66.6519°W)
Time: 23:22:50
(UTC+00:00)

Cosmos 1515 - Pass Details

Date: 29 May 2024
Orbit: 449 x 456 km, 82.5° (Epoch: 21 June)

Event Time Altitude Azimuth Distance (km) Brightness Sun altitude
Rises 23:06:52 0° 183° (S) 2,467 6.9 -5.8°
Reaches altitude 10° 23:08:56 10° 182° (S) 1,592 6.0 -6.3°
Maximum altitude 23:12:25 83° 94° (E) 462 3.4 -7.1°
Drops below altitude 10° 23:15:52 10° 6° (N) 1,586 6.4 -7.9°
Sets 23:17:56 0° 6° (N) 2,456 7.4 -8.3°
